Wind_Speed
12 14 17 20 21 19 22 26 30 30 36 43 51 50 48 42 39 41 47 53 52 48 48 50 54 56 58 60 63 66 68 70 72 74 75 75 77 76 76 75 77 78 78
15 17 20 18 19 24 28 29 34 39 43 47 50 49 48 48 49 47 45 45 46 47 51 55 58 61 63 66 70 73 76 78 80 81 81 82 80 78 79 80 80 79 80
17 17 18 20 29 33 37 37 39 41 43 47 46 41 40 41 42 42 43 43 48 53 57 61 63 65 68 71 75 77 80 83 84 84 85 87 90 91 89 88 86 85 82
19 22 21 26 30 35 34 39 40 45 46 45 43 42 41 41 41 42 46 50 54 59 61 62 64 68 74 76 79 81 86 90 93 93 93 95 95 93 94 93 90 90 91
23 25 32 35 36 32 38 40 49 48 45 45 44 42 42 44 47 49 53 56 57 58 61 66 71 76 81 83 85 90 94 96 95 94 93 93 93 94 96 95 92 90 90
26 26 33 39 39 40 43 47 39 40 41 38 39 42 44 47 48 52 56 59 61 65 70 75 82 86 87 90 92 95 96 96 95 94 93 90 86 83 81 80 77 73 71
28 24 29 37 39 42 42 37 41 38 39 41 45 47 49 52 55 58 61 63 66 72 77 81 85 86 89 93 97 97 100 101 100 92 86 81 72 67 67 65 65 68 71
21 22 28 32 36 38 39 41 39 41 46 49 51 51 51 53 57 60 63 67 72 77 80 84 89 92 95 99 100 100 98 94 86 81 73 66 67 69 61 63 66 72 60
20 23 27 32 36 35 36 39 42 41 44 47 49 51 55 58 60 63 67 72 76 80 84 90 94 98 102 101 102 101 97 79 73 68 63 64 61 57 61 65 57 56 51
22 25 27 29 32 35 39 42 47 50 53 54 55 58 60 62 64 69 73 76 82 87 91 94 97 99 102 102 99 84 74 67 63 61 54 54 58 58 55 55 56 57 58
26 30 32 35 37 40 44 47 51 54 57 58 59 61 64 66 70 74 76 82 86 89 93 94 97 100 99 91 76 65 60 58 51 49 53 55 52 50 53 54 56 55 55
34 36 39 42 43 46 49 51 54 56 59 60 62 64 67 70 74 76 81 85 87 90 93 98 99 99 88 72 60 55 45 40 40 40 42 47 47 51 52 53 50 45 45
37 40 43 45 46 48 51 53 57 58 61 62 63 66 69 72 75 79 83 86 90 93 100 101 98 86 68 53 46 36 30 32 39 43 41 46 49 47 47 43 42 44 48
39 42 45 47 49 51 53 55 59 60 61 62 65 68 72 74 77 82 85 88 92 99 100 97 83 65 49 38 33 33 33 36 41 45 44 51 47 49 44 41 45 48 50
42 45 47 49 51 52 55 59 58 59 60 63 67 71 74 77 80 83 87 91 98 98 95 82 65 50 40 34 34 35 37 40 44 47 48 52 49 48 41 42 44 46 49
45 48 51 53 53 55 57 58 58 59 62 65 69 73 76 79 82 86 89 98 99 95 84 67 52 41 35 33 35 37 39 42 47 47 50 50 48 42 39 41 45 48 49
47 50 55 56 55 56 59 58 58 60 63 69 72 75 78 81 86 90 97 98 93 84 70 54 43 37 33 35 37 38 40 44 49 47 51 47 45 37 37 40 45 48 46
50 52 56 55 55 58 59 58 60 63 68 71 75 78 81 84 88 95 97 93 83 70 57 44 38 34 33 36 36 38 41 45 48 47 51 46 40 35 37 40 44 45 42
51 53 53 54 56 59 58 59 63 67 70 74 78 81 83 85 94 94 90 84 71 59 45 37 33 32 34 35 35 38 41 44 44 45 47 44 35 34 35 40 41 40 38
52 53 54 54 58 60 60 63 66 69 73 78 79 80 83 92 93 89 84 72 60 49 38 34 32 32 33 34 36 38 41 42 42 45 42 40 31 31 33 38 39 37 34
55 55 55 57 59 61 62 64 68 73 77 78 78 82 91 93 87 82 71 61 52 41 36 33 33 33 33 35 37 39 42 39 42 42 36 35 28 27 30 35 36 35 32
56 56 58 59 61 63 64 67 72 78 78 77 80 90 92 88 80 70 61 52 44 36 34 34 33 32 33 34 36 39 39 39 41 39 33 30 24 24 27 31 32 32 29
58 58 60 61 63 66 68 72 76 79 76 79 89 90 88 80 68 61 53 44 38 35 34 33 31 31 33 34 36 37 38 40 40 38 31 28 21 21 24 27 27 28 26
59 59 60 62 66 70 72 75 79 74 80 87 88 88 79 68 61 53 45 39 36 33 31 30 31 32 32 33 35 36 37 39 38 37 29 26 21 19 20 22 22 23 23
58 59 62 64 69 71 74 78 73 80 84 85 85 77 67 62 55 45 38 35 32 30 30 31 31 31 31 33 34 35 36 36 36 35 28 25 24 18 16 17 18 18 19
59 62 65 68 71 73 75 71 79 81 82 83 74 66 62 58 48 39 34 33 33 33 30 29 28 28 31 33 33 34 35 35 34 32 26 23 24 18 15 14 16 15 14
Wind_Direction
275 286 295 291 292 304 309 302 305 305 304 308 313 312 306 307 301 298 295 296 302 302 303 303 303 304 305 305 304 305 304 303 302 299 297 295 295 293 292 290 288 286 283
288 290 291 291 296 303 308 305 305 305 305 306 306 304 302 297 294 296 298 300 302 303 304 304 305 306 305 306 305 305 305 303 300 298 295 294 293 291 290 288 286 283 280
293 295 296 298 302 305 306 309 304 301 302 303 302 301 298 298 300 300 301 302 305 307 307 307 306 306 306 306 305 304 302 300 300 299 299 299 296 294 292 291 288 284 279
295 289 284 291 296 300 300 302 305 309 305 304 301 301 302 303 302 303 305 307 309 308 306 303 302 303 303 303 301 302 305 306 306 304 302 299 296 293 290 288 283 279 277
310 298 298 299 301 297 293 291 309 308 305 303 303 303 304 306 306 306 304 302 301 302 302 304 305 306 306 306 307 307 305 304 302 300 298 294 292 288 285 282 279 276 273
307 300 296 302 292 292 304 312 306 303 303 301 302 300 299 298 294 295 299 303 305 307 309 309 310 310 309 307 307 304 302 303 301 299 297 294 290 289 288 288 286 286 284
308 301 297 299 304 307 306 301 299 295 293 295 298 299 300 298 300 303 305 306 308 309 310 311 311 309 307 306 306 305 304 306 306 303 297 296 296 294 295 294 289 284 291
300 298 294 296 299 300 295 297 296 294 295 297 300 300 301 302 305 306 308 309 308 309 308 310 310 309 309 309 309 308 306 304 300 298 299 299 298 297 293 291 295 294 292
317 310 304 303 301 302 301 300 299 296 298 302 303 305 307 308 309 310 309 308 308 309 311 314 313 311 311 310 308 307 306 302 299 298 298 295 297 296 301 304 299 297 290
320 317 310 306 308 310 308 306 307 310 309 308 307 308 309 310 310 309 310 311 313 315 315 314 312 311 310 309 309 307 304 302 301 299 299 297 297 304 300 298 296 295 294
323 320 318 315 314 312 312 314 312 309 308 308 308 308 310 311 312 312 313 315 316 315 313 313 313 313 312 312 309 305 304 302 304 305 306 305 303 303 300 298 297 295 294
328 325 322 319 318 317 313 311 309 307 308 308 308 309 311 311 311 313 314 315 315 314 314 316 315 316 315 312 309 310 308 310 316 309 309 306 306 304 301 300 298 296 296
322 320 319 318 315 312 310 308 308 308 306 307 308 309 310 311 312 314 315 315 315 317 318 317 317 316 314 313 313 315 321 316 312 314 312 312 310 306 305 301 299 298 296
318 317 316 316 312 310 308 311 307 308 307 307 309 310 311 312 313 316 316 316 318 319 319 320 318 315 313 314 316 318 316 317 319 318 313 317 314 315 311 308 306 303 300
317 315 313 312 309 310 309 312 309 307 308 310 311 312 312 315 317 317 317 318 319 320 321 320 317 314 311 310 310 311 313 316 320 319 318 321 318 316 313 311 310 309 307
315 314 312 309 309 311 312 310 309 308 309 311 311 312 315 317 316 317 317 319 321 322 321 319 315 312 309 308 310 309 312 315 318 318 321 320 318 314 314 313 315 314 312
313 313 310 309 312 311 312 310 308 309 311 311 314 315 316 317 318 318 319 321 322 322 322 317 313 311 309 312 310 309 310 315 317 316 322 321 318 315 315 318 320 319 315
312 309 309 311 309 309 309 308 309 310 312 313 315 317 318 319 319 320 321 322 323 322 320 315 314 311 311 311 310 309 311 314 318 318 323 321 318 318 320 324 325 324 321
307 307 307 306 306 309 310 311 311 312 314 316 318 320 320 320 320 322 323 323 323 322 317 314 310 307 307 312 313 313 313 316 318 321 323 321 319 321 324 329 330 331 328
305 305 306 306 309 312 313 313 314 315 317 319 320 320 320 321 321 323 323 322 323 321 317 314 309 309 312 317 316 316 314 320 321 324 323 322 320 322 329 333 337 340 340
305 307 308 309 311 312 313 313 315 319 320 319 320 320 322 321 324 323 322 322 322 320 318 313 308 308 311 315 318 318 320 322 323 325 324 323 320 324 332 336 342 347 351
308 309 309 311 310 311 313 316 320 321 320 320 321 322 321 323 323 322 322 321 320 318 316 314 313 312 315 318 320 322 323 323 325 328 327 326 320 326 332 338 345 352 356
308 308 310 310 311 314 316 318 319 319 319 321 322 321 322 322 322 322 322 321 320 318 316 317 317 317 317 320 324 324 324 325 328 332 331 330 320 324 331 339 347 353 0
308 308 309 311 312 314 315 316 318 319 322 323 321 321 322 322 322 322 321 322 321 319 318 319 319 320 320 325 326 325 326 327 331 334 333 331 324 322 324 337 346 352 360
305 307 309 309 309 312 312 315 319 323 322 321 321 322 321 322 322 322 320 320 321 320 318 319 320 321 324 326 326 327 329 330 333 334 333 332 331 318 321 333 344 350 357
303 307 305 307 311 311 314 319 322 322 321 321 322 322 322 322 322 319 316 317 319 318 318 318 321 324 327 326 328 330 332 332 333 335 335 333 331 316 314 324 338 344 352
Height
5807 5806 5805 5803 5802 5801 5799 5796 5793 5790 5786 5784 5780 5776 5772 5767 5763 5760 5757 5753 5747 5743 5739 5734 5729 5723 5717 5712 5707 5701 5695 5690 5686 5681 5677 5671 5664 5661 5658 5654 5651 5649 5646
5803 5803 5802 5801 5799 5797 5794 5791 5789 5785 5781 5777 5773 5768 5764 5759 5755 5751 5747 5742 5739 5734 5729 5723 5716 5709 5703 5697 5690 5683 5676 5669 5663 5658 5653 5648 5645 5641 5636 5632 5628 5625 5622
5800 5798 5796 5794 5793 5791 5789 5785 5783 5779 5774 5769 5764 5758 5753 5749 5745 5741 5737 5733 5728 5722 5715 5707 5700 5693 5686 5679 5671 5665 5660 5652 5644 5636 5628 5620 5614 5609 5606 5602 5597 5594 5594
5796 5794 5793 5791 5788 5785 5782 5778 5775 5770 5764 5758 5753 5748 5744 5740 5736 5732 5727 5722 5716 5708 5700 5693 5686 5679 5671 5665 5656 5648 5637 5625 5616 5607 5600 5590 5583 5577 5575 5574 5571 5565 5559
5790 5789 5787 5782 5781 5778 5775 5771 5765 5760 5755 5749 5745 5740 5736 5732 5727 5722 5717 5711 5705 5697 5689 5680 5672 5663 5653 5642 5631 5622 5613 5603 5595 5585 5577 5568 5557 5544 5532 5532 5532 5530 5529
5786 5784 5780 5776 5772 5769 5765 5761 5758 5753 5748 5743 5739 5735 5730 5725 5720 5714 5707 5699 5689 5680 5671 5662 5651 5640 5630 5620 5613 5601 5588 5578 5567 5555 5543 5534 5525 5518 5507 5500 5496 5496 5501
5779 5777 5773 5770 5764 5762 5759 5756 5752 5747 5742 5738 5733 5727 5720 5713 5707 5699 5691 5682 5674 5664 5654 5645 5634 5624 5612 5600 5587 5572 5557 5544 5531 5521 5512 5503 5497 5492 5487 5480 5476 5472 5476
5774 5772 5768 5764 5760 5756 5753 5749 5744 5738 5734 5728 5721 5715 5708 5701 5694 5685 5677 5668 5659 5651 5641 5630 5616 5602 5587 5573 5557 5542 5529 5515 5506 5497 5489 5483 5478 5473 5468 5462 5456 5455 5452
5768 5765 5762 5759 5755 5751 5746 5740 5735 5729 5724 5718 5711 5703 5696 5689 5681 5672 5664 5655 5645 5634 5621 5608 5592 5575 5562 5548 5533 5518 5506 5495 5484 5478 5473 5468 5462 5456 5450 5443 5436 5432 5433
5764 5761 5758 5754 5749 5743 5737 5730 5723 5716 5710 5703 5696 5689 5682 5675 5666 5658 5648 5637 5624 5611 5598 5585 5570 5556 5540 5526 5509 5493 5480 5473 5467 5462 5458 5453 5448 5442 5436 5429 5423 5417 5411
5757 5753 5748 5743 5738 5731 5725 5718 5711 5704 5698 5690 5683 5676 5669 5660 5650 5640 5630 5619 5607 5594 5580 5567 5552 5534 5516 5498 5484 5474 5467 5459 5454 5450 5445 5440 5434 5429 5423 5415 5410 5404 5397
5748 5743 5738 5732 5726 5719 5713 5707 5700 5693 5685 5677 5670 5662 5654 5646 5636 5626 5615 5604 5591 5577 5560 5542 5525 5508 5493 5479 5468 5460 5453 5448 5444 5440 5436 5430 5423 5417 5409 5402 5395 5389 5384
5740 5735 5729 5723 5717 5711 5704 5697 5689 5680 5674 5666 5658 5651 5642 5632 5622 5612 5600 5587 5574 5557 5540 5521 5503 5488 5474 5465 5457 5450 5445 5441 5437 5432 5426 5420 5412 5405 5396 5389 5383 5378 5373
5733 5727 5721 5715 5708 5701 5694 5686 5678 5670 5662 5654 5646 5638 5628 5619 5609 5596 5583 5569 5552 5536 5518 5500 5484 5471 5462 5455 5449 5444 5439 5435 5429 5422 5416 5408 5399 5391 5383 5377 5371 5364 5358
5723 5717 5711 5705 5698 5690 5684 5676 5667 5659 5651 5643 5634 5625 5615 5604 5592 5579 5564 5549 5533 5515 5497 5481 5468 5459 5452 5447 5443 5438 5432 5427 5420 5413 5405 5396 5387 5379 5372 5366 5359 5351 5343
5713 5707 5700 5693 5686 5680 5673 5664 5655 5647 5640 5631 5622 5611 5600 5588 5575 5562 5547 5529 5511 5495 5480 5466 5456 5449 5443 5439 5435 5429 5424 5418 5411 5404 5397 5387 5378 5369 5363 5356 5347 5338 5327
5703 5695 5688 5681 5675 5667 5659 5651 5644 5636 5628 5618 5607 5595 5583 5570 5556 5541 5526 5508 5490 5474 5462 5452 5446 5439 5435 5431 5426 5421 5415 5409 5403 5395 5387 5378 5368 5361 5355 5347 5337 5326 5315
5691 5684 5676 5669 5663 5655 5648 5640 5632 5623 5613 5602 5591 5579 5567 5552 5537 5521 5503 5488 5473 5460 5449 5441 5435 5431 5427 5423 5419 5413 5407 5401 5393 5386 5377 5368 5360 5353 5346 5338 5328 5316 5305
5679 5672 5666 5660 5652 5644 5635 5627 5618 5608 5597 5587 5574 5562 5548 5534 5518 5501 5486 5471 5458 5447 5439 5433 5428 5424 5420 5416 5410 5405 5400 5393 5385 5377 5368 5360 5352 5346 5339 5332 5322 5310 5298
5669 5662 5656 5647 5639 5630 5621 5613 5603 5593 5583 5571 5557 5544 5531 5516 5500 5483 5470 5457 5446 5436 5430 5425 5421 5417 5413 5408 5403 5398 5392 5385 5378 5369 5360 5352 5346 5340 5334 5326 5317 5305 5294
5657 5649 5641 5633 5625 5616 5608 5598 5588 5578 5567 5554 5542 5528 5514 5498 5483 5469 5456 5444 5435 5428 5423 5418 5414 5410 5406 5401 5396 5390 5383 5377 5370 5363 5354 5346 5340 5335 5329 5322 5313 5303 5293
5642 5634 5626 5619 5611 5603 5594 5584 5574 5564 5551 5539 5527 5513 5496 5482 5468 5456 5445 5435 5427 5421 5416 5411 5407 5403 5399 5394 5389 5382 5375 5369 5363 5355 5347 5341 5335 5331 5327 5320 5312 5303 5294
5628 5620 5613 5605 5596 5588 5579 5570 5559 5548 5537 5525 5511 5496 5482 5468 5455 5444 5435 5427 5420 5414 5409 5405 5400 5396 5392 5387 5382 5375 5369 5362 5355 5349 5342 5336 5331 5328 5324 5319 5312 5305 5297
5614 5607 5600 5592 5583 5574 5564 5555 5545 5534 5521 5508 5493 5481 5468 5455 5444 5433 5425 5419 5413 5408 5403 5398 5394 5390 5385 5381 5375 5370 5363 5356 5349 5343 5337 5332 5328 5325 5322 5317 5312 5307 5301
5602 5595 5587 5578 5570 5560 5550 5540 5530 5519 5505 5492 5478 5466 5454 5443 5433 5424 5417 5412 5407 5402 5397 5393 5388 5384 5380 5375 5370 5364 5357 5350 5344 5337 5333 5328 5324 5321 5319 5316 5312 5307 5303
5589 5581 5573 5566 5557 5546 5536 5526 5515 5503 5490 5478 5464 5452 5442 5432 5424 5417 5411 5406 5401 5396 5392 5387 5383 5379 5375 5370 5364 5358 5352 5345 5339 5334 5329 5325 5321 5318 5316 5314 5311 5308 5305